DW9019 Weather Reports


time (UTC)temp
F
wind
direction
speed
knots
gust
knots
rain 1hr
in
rain 24hr
in
rain mn
in
humidity
%
barometer
mb
20260506091514 40 322 0.0 0.0 0.00 0.00 0.00 94 1017.1
20260506090010 40 322 0.0 0.0 0.00 0.00 0.00 94 1017.0
20260506084511 40 322 0.0 0.0 0.00 0.00 0.00 94 1017.0
20260506083009 40 322 0.0 0.0 0.00 0.00 0.00 94 1016.9
20260506061521 42 322 0.0 0.0 0.00 0.00 0.00 91 1016.0
20260506044540 46 322 0.0 0.0 0.00 0.00 0.00 84 1015.1
20260506043011 47 322 0.0 0.0 0.00 0.00 0.00 80 1015.1
20260506041601 48 322 0.0 0.0 0.00 0.00 0.00 77 1014.9
20260506040050 48 304 0.0 0.0 0.00 0.00 0.00 78 1014.8
20260506034559 48 271 0.0 0.0 0.00 0.00 0.00 79 1014.6
20260506033035 48 36 0.0 0.0 0.00 0.00 0.00 79 1014.4
20260506031530 48 36 0.0 1.7 0.00 0.00 0.00 81 1014.3
20260506030028 49 216 0.0 0.0 0.00 0.00 0.00 83 1014.1
20260506024528 49 330 0.0 0.0 0.00 0.00 0.00 83 1014.0
20260506023024 50 244 0.0 4.3 0.00 0.00 0.00 83 1014.1
20260506021525 51 237 0.0 4.3 0.00 0.00 0.00 83 1013.9
20260506020025 51 227 0.0 4.3 0.00 0.00 0.00 80 1013.7
20260506014528 51 282 0.0 0.0 0.00 0.00 0.00 83 1013.5
20260506013022 51 292 0.0 0.0 0.00 0.00 0.00 80 1013.5
20260506011523 52 241 0.0 4.3 0.00 0.00 0.00 75 1013.5
20260506010022 51 240 0.0 4.3 0.00 0.00 0.00 76 1013.5
20260506004531 53 238 1.7 7.0 0.00 0.00 0.00 74 1013.6
20260506003025 54 236 2.6 7.0 0.00 0.00 0.00 72 1013.6
20260506001555 58 248 0.0 4.3 0.00 0.00 0.00 62 1013.5
20260506000047 58 257 0.0 0.9 0.00 0.00 0.00 53 1013.5
20260505234546 59 74 0.0 2.6 0.00 0.00 0.00 52 1013.5
20260505233026 58 90 0.0 1.7 0.00 0.00 0.00 53 1013.7
20260505231510 57 121 1.7 5.2 0.00 0.00 0.00 53 1013.9
20260505230007 58 86 0.0 4.3 0.00 0.00 0.00 54 1014.0
20260505224546 56 82 0.9 6.1 0.00 0.00 0.00 55 1014.2
20260505223043 57 105 0.9 8.7 0.00 0.00 0.00 55 1014.1
20260505221522 56 95 0.0 10.4 0.00 0.00 0.00 58 1014.3
20260505220029 55 111 0.0 7.0 0.00 0.00 0.00 57 1014.4
20260505214503 56 86 0.0 6.1 0.00 0.00 0.00 58 1014.5
20260505213105 54 117 0.9 10.4 0.00 0.00 0.00 60 1014.7
20260505211547 55 118 2.6 7.8 0.00 0.00 0.00 60 1014.8
20260505210039 54 116 0.0 8.7 0.00 0.00 0.00 65 1014.9
20260505204519 53 74 0.9 6.1 0.00 0.00 0.00 69 1015.0
20260505203015 52 149 0.0 3.5 0.00 0.00 0.00 77 1014.9
20260505201557 51 246 0.9 5.2 0.00 0.00 0.00 74 1015.0
20260505200052 49 257 0.0 6.1 0.00 0.00 0.00 80 1015.2
20260505194543 49 264 0.0 3.5 0.00 0.00 0.00 80 1015.3
20260505193043 48 239 0.0 0.0 0.00 0.00 0.00 85 1015.4
20260505191548 47 130 0.0 2.6 0.00 0.00 0.00 88 1015.4
20260505190030 46 81 0.0 0.0 0.00 0.00 0.00 91 1015.5
20260505184528 46 192 0.0 0.0 0.00 0.00 0.00 97 1015.4
20260505183028 45 192 0.0 0.0 0.00 0.00 0.00 97 1015.4
20260505181525 43 93 0.0 0.0 0.00 0.00 0.00 97 1015.4
20260505180027 42 73 0.0 0.0 0.00 0.00 0.00 97 1015.2
20260505174505 41 73 0.0 0.0 0.00 0.00 0.00 97 1015.2
20260505173004 40 73 0.0 0.0 0.00 0.00 0.00 97 1015.0
20260505171502 39 73 0.0 0.0 0.00 0.00 0.00 97 1015.0
20260505170001 39 73 0.0 0.0 0.00 0.00 0.00 97 1014.8
20260505164502 38 72 0.0 0.0 0.00 0.00 0.00 97 1014.8
20260505163100 38 72 0.0 0.0 0.00 0.00 0.00 97 1014.8
20260505161604 38 72 0.0 0.0 0.00 0.00 0.00 97 1014.5
20260505153051 37 72 0.0 0.0 0.00 0.00 0.00 97 1014.2
20260505151519 36 72 0.0 0.0 0.00 0.00 0.00 97 1014.0
20260505124507 35 72 0.0 0.0 0.00 0.00 0.00 96 1012.9
20260505123103 35 72 0.0 0.0 0.00 0.00 0.00 97 1012.9
20260505121545 35 72 0.0 0.0 0.00 0.00 0.00 96 1012.9
20260505120030 35 72 0.0 0.0 0.00 0.00 0.00 96 1012.8
20260505114526 35 72 0.0 0.0 0.00 0.00 0.00 96 1012.8
20260505113008 35 72 0.0 0.0 0.00 0.00 0.00 96 1012.8
20260505111507 34 72 0.0 0.0 0.00 0.00 0.00 96 1012.8
20260505101534 34 72 0.0 0.0 0.00 0.00 0.00 96 1012.8
20260505100013 34 72 0.0 0.0 0.00 0.00 0.00 96 1012.9
20260505094512 34 72 0.0 0.0 0.00 0.00 0.00 96 1012.9
20260505093055 34 72 0.0 0.0 0.00 0.00 0.00 96 1013.1